EW3957 Weather Reports


time (UTC)temp
C
wind
direction
speed
KPH
gust
KPH
rain 1hr
cm
rain 24hr
cm
rain mn
cm
humidity
%
barometer
mb
20260504214537 25 190 1.6 8.0 0.00 0.00 0.00 37 1007.3
20260504213017 25 207 0.0 8.0 0.00 0.00 0.00 38 1007.4
20260504211535 24 307 0.0 6.4 0.00 0.00 0.00 39 1007.5
20260504204533 23 310 3.2 6.4 0.00 0.00 0.00 38 1007.8
20260504203102 23 205 1.6 9.7 0.00 0.00 0.00 40 1007.9
20260504201513 23 16 3.2 12.9 0.00 0.00 0.00 38 1007.9
20260504200043 23 343 1.6 9.7 0.00 0.00 0.00 39 1007.8
20260504194602 23 219 1.6 8.0 0.00 0.00 0.00 40 1007.9
20260504193027 22 172 0.0 14.5 0.00 0.00 0.00 40 1007.9
20260504191558 22 5 3.2 9.7 0.00 0.00 0.00 39 1008.1
20260504190010 22 68 3.2 8.0 0.00 0.00 0.00 40 1008.1
20260504184539 22 194 0.0 8.0 0.00 0.00 0.00 41 1008.1
20260504183004 22 333 3.2 8.0 0.00 0.00 0.00 44 1008.3
20260504181542 22 355 1.6 8.0 0.00 0.00 0.00 46 1008.3
20260504174518 21 341 4.8 16.1 0.00 0.00 0.00 42 1008.4
20260504173046 21 250 0.0 6.4 0.00 0.00 0.00 48 1008.5
20260504171511 20 245 0.0 6.4 0.00 0.00 0.00 43 1008.4
20260504150112 9 184 0.0 0.0 0.00 0.00 0.00 96 1008.9
20260504090104 5 178 0.0 0.0 0.00 0.00 0.00 90 1007.5
20260504081506 6 178 0.0 0.0 0.00 0.00 0.00 88 1007.5
20260504044604 11 178 0.0 0.0 0.00 0.00 0.00 79 1007.0
20260504043024 12 178 0.0 0.0 0.00 0.00 0.00 77 1007.0
20260504041553 12 178 0.0 0.0 0.00 0.00 0.00 75 1006.9
20260504040007 13 178 0.0 0.0 0.00 0.00 0.00 73 1006.8
20260504034543 14 178 0.0 0.0 0.00 0.00 0.00 70 1006.5
20260504033002 15 178 0.0 0.0 0.00 0.00 0.00 66 1006.5
20260504031532 16 178 0.0 0.0 0.00 0.00 0.00 63 1006.4
20260504030122 17 178 0.0 0.0 0.00 0.00 0.00 59 1006.4
20260504024515 18 180 0.0 0.0 0.00 0.00 0.00 55 1006.4
20260504023045 21 179 0.0 0.0 0.00 0.00 0.00 53 1006.3
20260504021511 22 175 0.0 0.0 0.00 0.00 0.00 47 1006.5
20260504020037 23 155 0.0 0.0 0.00 0.00 0.00 41 1006.5
20260504014603 25 171 0.0 0.0 0.00 0.00 0.00 35 1006.6
20260504013028 25 192 0.0 1.6 0.00 0.00 0.00 33 1006.8
20260504011548 26 165 0.0 1.6 0.00 0.00 0.00 30 1006.9
20260504010005 26 217 0.0 0.0 0.00 0.00 0.00 32 1007.1
20260504004533 26 219 0.0 8.0 0.00 0.00 0.00 30 1007.2
20260504003105 26 222 0.0 4.8 0.00 0.00 0.00 30 1007.3
20260504001527 26 219 0.0 1.6 0.00 0.00 0.00 30 1007.5
20260504000058 26 207 0.0 9.7 0.00 0.00 0.00 28 1007.6
20260503234511 26 153 0.0 9.7 0.00 0.00 0.00 30 1007.6
20260503233040 27 58 0.0 0.0 0.00 0.00 0.00 31 1007.8
20260503231506 26 78 0.0 0.0 0.00 0.00 0.00 28 1007.9
20260503230034 26 341 0.0 8.0 0.00 0.00 0.00 31 1008.2
20260503224553 26 338 0.0 4.8 0.00 0.00 0.00 26 1008.3
20260503223020 26 169 0.0 8.0 0.00 0.00 0.00 28 1008.5
20260503221547 26 106 0.0 1.6 0.00 0.00 0.00 29 1008.8
20260503220001 26 80 0.0 8.0 0.00 0.00 0.00 31 1009.0